Regional Weather Roundup
Issued by NWS Upton, NY

Current Version | Previous Version | Text Only | Print | Product List | Glossary On
Versions: 1 2 3 4 5 6 7 8 9 10 11 12 13 14 15 16 17 18 19 20 21 22 23 24 25 26 27 28 29 30 31 32 33 34 35 36 37 38 39 40 41 42 43 44 45 46
000 ASUS41 KOKX 270605 RWROKX REGIONAL WEATHER ROUNDUP NATIONAL WEATHER SERVICE NEW YORK NY 100 AM EST SAT DEC 27 2014 NOTE: "FAIR" INDICATES FEW OR NO CLOUDS BELOW 12,000 FEET WITH NO SIGNIFICANT WEATHER AND/OR OBSTRUCTIONS TO VISIBILITY. NYZ071-072-176-178-NJZ106-104-270700- NEW YORK CITY METRO AREA CITY SKY/WX TMP DP RH WIND PRES REMARKS CENTRAL PARK CLEAR 44 29 55 W7 30.22F LAGUARDIA APRT PTCLDY 43 30 60 CALM 30.20F KENNEDY INTL PTCLDY 41 31 67 W7 30.22S NEWARK/LIBERTY PTCLDY 38 30 73 SW5 30.21F WCI 34 BRNX BOT. GARD N/A N/A N/A N/A W7 30.22S TETERBORO CLEAR 35 30 82 CALM 30.20F $$ NYZ177-179-078>081-270700- LONG ISLAND NEW YORK CITY SKY/WX TMP DP RH WIND PRES REMARKS FARMINGDALE CLEAR 39 30 70 W5 30.20S ISLIP CLEAR 34 28 79 W7 30.18S WCI 28 SHIRLEY CLEAR 34 29 82 W7 30.20S WCI 28 WESTHAMPTON CLEAR 24 20 84 CALM 30.20F MONTAUK POINT N/A 43 33 68 W7 30.18F $$ NYZ052-065-067-270700- HUDSON VALLEY CITY SKY/WX TMP DP RH WIND PRES REMARKS WHITE PLAINS PTCLDY 39 28 64 W5 30.18S NEWBURGH CLEAR 34 28 80 W9 30.19S WCI 26 MONTGOMERY PTCLDY 29 26 89 SW5 30.18S WCI 24 POUGHKEEPSIE PTCLDY 38 28 67 S6 30.18S WCI 33 ALBANY PTCLDY 29 25 85 CALM 30.16F $$ NJZ001-105-106-008-010-013-015-019>022-104-270700- NEW JERSEY CITY SKY/WX TMP DP RH WIND PRES REMARKS NEWARK/LIBERTY PTCLDY 38 30 73 SW5 30.21F WCI 34 TETERBORO CLEAR 35 30 82 CALM 30.20F CALDWELL CLEAR 32 28 85 CALM 30.21F MORRISTOWN CLEAR 32 28 86 CALM 30.21F SOMERVILLE CLEAR 28 24 85 CALM 30.21F SUSSEX CLEAR 28 26 92 CALM 30.20S ANDOVER NOT AVBL TRENTON CLEAR 35 28 75 W3 30.21F MILLVILLE CLEAR 29 27 92 CALM 30.23F ATLANTIC CITY CLEAR 33 29 85 CALM 30.24F WRIGHTSTOWN NOT AVBL TOMS RIVER CLEAR 28 27 93 CALM 30.21S BELMAR CLEAR 36 27 69 W6 30.21S WCI 31 $$ PAZ047>061-062-071-270700- EASTERN PENNSYLVANIA CITY SKY/WX TMP DP RH WIND PRES REMARKS PHILADELPHIA PTCLDY 36 31 82 W5 30.24F WCI 32 ALLENTOWN CLEAR 30 26 85 CALM 30.21F FOG SCRANTON CLEAR 37 28 70 W3 30.19S $$ CTZ002-004>006-009-010-012-RIZ004-006-007-MAZ004-011-015-270700- SOUTHERN NEW ENGLAND IN CT CITY SKY/WX TMP DP RH WIND PRES REMARKS BRADLEY INTL PTCLDY 29 26 89 CALM 30.15F HARTFORD PTCLDY 30 28 92 CALM 30.18R FOG DANBURY PTCLDY 27 22 81 CALM 30.19S WTRBRY/OXFORD PTCLDY 37 25 60 NW5 30.17S WCI 34 BRIDGEPORT CLEAR 38 32 79 W6 30.19S WCI 33 MERIDEN CLEAR 27 24 89 CALM 30.18S FOG NEW HAVEN CLEAR 32 26 78 CALM 30.18S CHESTER FAIR 34 30 86 NW3 30.17R GROTON CLEAR 31 29 92 CALM 30.16F WILLIMANTIC CLEAR 28 25 88 CALM 30.16F IN RI CITY SKY/WX TMP DP RH WIND PRES REMARKS PROVIDENCE CLEAR 31 27 85 SE3 30.14F BLOCK ISLAND CLEAR 43 32 65 W12 30.15F WESTERLY CLEAR 38 32 79 CALM 30.16F IN MA CITY SKY/WX TMP DP RH WIND PRES REMARKS BOSTON PTCLDY 40 29 64 W7 30.13F WORCESTER CLEAR 32 27 81 W8 30.11F WCI 25 WESTFIELD PTCLDY 27 23 85 CALM 30.15F PROVINCETOWN CLEAR 43 34 70 W10G16 30.13F NANTUCKET CLEAR 42 36 79 W8 30.14F $$ ANZ330-335-338-340-345-350-353-355-270700- COASTAL MARINE OBSERVATIONS STATION/POSITION TIME SKY/WX TEMP WIND PRES VSBY WAVE AIR SEA DIR/SP/G HT/PER (UTC) (F) (DEG/KT/KT) (MB) (MI) (FT/S) NY HARB ENTRANCE 0600 45 45 270/ 14/ 14 1023.3 2/14 4S FIRE IS 0600 47 N/A 3/ 4 20S FIRE ISLAND 0500 47 48 1023.5 3/ 4 23SW MTP 0600 N/A 3/ 5 HUDSON CANYON 0600 49 55 290/ 17/ 19 1022.5 4/ 5 EXECUTION ROCKS 0600 44 42 230/ 8/ 8 N/A WESTERN LI SOUND 0500 44 250/ 8/ 10 N/A 0 CENTRAL LI SOUND 0500 44 44 280/ 12/ 16 N/A 1/ 4 EASTERN LI SOUND NOT AVBL ROBBINS REEF 0600 41 1021.9 $$ >>>>>>>>>>>>>>>>>>>>>>>>>>>> KEY <<<<<<<<<<<<<<<<<<<<<<<<<<< > < > SKY/WX - SKY CONDITION/PRESENT WEATHER < > TMP - TEMPERATURE IN FAHRENHEIT < > DP - DEWPOINT IN FAHRENHEIT < > RH - RELATIVE HUMIDITY IN PERCENT < > WIND - DIRECTION AND SPEED IN MPH < > PRES - MEAN SEA LEVEL PRESSURE IN INCHES OF HG < > WCI - WIND CHILL INDEX < > VSB - VISIBILITY IN MILES < > HX - HEAT INDEX < > TC - TEMPERATURE IN CELSIUS < > VRB - VARIABLE WIND DIRECTION < > < >>>>>>>>>>>>>>>>>>>>>>>>>>>> KEY <<<<<<<<<<<<<<<<<<<<<<<<<<<

USA.gov is the U.S. government's official web portal to all federal, state and local government web resources and services.